[[{"header":{"parameterUnit":"m.s-1","parameterCategory":1,"la1":30.2991,"la2":30.254,"lo1":-89.0895,"lo2":-89.0444,"dy":0.0017,"dx":0.0017,"nx":28,"ny":28,"refTime":"2023-11-20T09:00:00:Z","depth":0,"parameterNumber":2,"parameterNumberName":"U-component_of_WINDS"},"data":[0,0,0,0,0,0,0,0,0,0,0,0,0,0,0,0,0,0,0,0,0,0,0,0,0,0,0,0,0,0,0,0,0,0,0,0,0,0,0,0,0,0,0,0,0,0,0,0,0,0,0,0,0,0,0,0,0,0,-4.949,-4.9492,0,-4.9694,-4.9697,-4.9699,-4.9759,-4.9758,-4.9757,-4.9756,-4.9966,-4.9972,-4.9979,0,0,0,0,0,0,0,0,0,0,0,0,0,-4.9152,-4.9158,-4.9489,-4.9492,-4.9495,-4.9694,-4.9697,-4.9699,-4.976,-4.9758,-4.9757,-4.9756,-4.9964,-4.9972,-4.9979,0,0,0,0,0,0,0,0,0,0,0,0,0,-4.9322,-4.916,-4.9489,-4.9549,-4.9556,-4.9693,-4.9697,-4.97,-4.976,-4.9758,-4.9757,-4.9755,-4.9961,-4.9971,-4.9981,-5.0073,0,0,-5.0011,-5.0015,0,0,0,0,0,0,0,0,-4.9312,-4.9334,-4.9537,-4.9545,-4.9553,-4.97,-4.9655,-4.9825,-4.976,-4.9683,-4.9756,-4.9754,-4.9879,-4.9895,-4.9937,-5.0083,-5.0092,-5.0012,-5.0017,-5.0022,-5.0025,0,0,0,0,0,0,0,-4.93,-4.9325,-4.9571,-4.954,-4.955,-4.9566,-4.9588,-4.9687,-4.9787,-4.9689,-4.9694,-4.9717,-4.9883,-4.9927,-4.9942,-5.0095,-5.0011,-5.002,-5.0026,-5.003,-5.0328,-5.033,0,0,0,0,0,0,-4.9278,-4.9315,-4.9564,-4.9577,-4.9426,-4.9573,-4.9598,-4.9654,-4.9786,-4.9805,-4.9719,-4.972,-4.9911,-4.9931,-4.995,-5.0068,-5.0022,-5.0031,-5.0037,-5.0326,-5.0329,-5.0331,0,0,0,0,0,0,-4.9271,-4.93,-4.9556,-4.9447,-4.9481,-4.958,-4.9643,-4.9659,-4.9704,-4.9808,-4.9826,-4.9746,-4.9911,-4.9936,-5.0042,-5.0076,-5.0035,-5.0044,-5.0324,-5.0327,-5.033,-5.0303,0,0,0,0,0,0,-4.9261,-4.9297,-4.9332,-4.9448,-4.9487,-4.9644,-4.9645,-4.9664,-4.9721,-4.9724,-4.9839,-4.9856,-4.9912,-5.0027,-5.0052,-5.0088,-5.0052,-5.0321,-5.0325,-5.0329,-5.0301,-5.0304,-5.0307,0,0,0,0,0,-4.9248,-4.9317,-4.9334,-4.9364,-4.9534,-4.9646,-4.9668,-4.9731,-4.9723,-4.976,-4.9828,-4.9853,-5.0068,-5.0038,-5.0066,-5.0106,-5.032,-5.0324,-5.0329,-5.03,-5.0304,-5.0307,0,0,0,0,0,0,-4.9203,-4.9333,-4.9353,-4.9461,-4.9542,-4.9656,-4.9704,-4.9733,-4.9818,-4.9817,-4.9891,-4.9916,-5.0017,-5.0073,-5.0036,-5.0203,-5.0195,-5.0205,-5.0163,-5.0168,-5.0171,-5.0155,-5.006,0,0,0,0,0,-4.9205,-4.9285,-4.9395,-4.9479,-4.9519,-4.9604,-4.9656,-4.9697,-4.9784,-4.9818,-4.9893,-4.9977,-5.0063,-5.0119,-5.0204,-5.031,-5.0336,-5.0351,-5.0354,-5.0356,-5.0364,-5.0425,-5.0433,-5.0346,-5.0346,-5.0346,0,0,-4.9211,-4.9292,-4.9338,-4.9472,-4.9539,-4.9621,-4.9633,-4.9718,-4.978,-4.9831,-4.9936,-4.9994,-5.0092,-5.0198,-5.0249,-5.0248,-5.0394,-5.0362,-5.0363,-5.037,-5.043,-5.0438,-5.0446,-5.0349,-5.0348,-5.0348,0,0,-4.9263,-4.9332,-4.941,-4.9478,-4.958,-4.9637,-4.9655,-4.9766,-4.9806,-4.9913,-4.9953,-5.0027,-5.0175,-5.0243,-5.0297,-5.0377,-5.0403,-5.0403,-5.0418,-5.0476,-5.0483,-5.049,-5.0518,-5.0527,-5.041,-5.041,-5.041,0,-4.9257,-4.9381,-4.9447,-4.9531,-4.9588,-4.9639,-4.9719,-4.9781,-4.9906,-4.9945,-4.9942,-5.0129,-5.0199,-5.0322,-5.0341,-5.0383,-5.0407,-5.0389,-5.0477,-5.0484,-5.0491,-5.0519,-5.0529,-5.0409,-5.0409,-5.041,-5.041,0,-4.9369,-4.9455,-4.9505,-4.9625,-4.9689,-4.977,-4.9848,-4.9905,-4.9941,-4.9998,-5.0106,-5.0192,-5.0295,-5.0328,-5.0364,-5.0457,-5.0453,-5.0462,-5.0455,-5.0497,-5.0525,-5.0536,-5.0408,-5.0409,-5.0409,-5.0409,0,0,-4.9397,-4.9552,-4.957,-4.9625,-4.9741,-4.9809,-4.9893,-4.9995,-5.0042,-5.0127,-5.0199,-5.0324,-5.0334,-5.0395,-5.0439,-5.049,-5.0547,-5.0494,-5.0497,-5.0501,-5.0655,-5.0647,-5.0658,-5.0566,-5.0568,-5.057,-5.0647,0,-4.9464,-4.9615,-4.9677,-4.98,-4.988,-4.993,-5.0003,-5.0083,-5.0139,-5.0215,-5.0278,-5.0365,-5.0371,-5.0409,-5.0461,-5.0529,-5.0579,-5.0525,-5.0634,-5.0637,-5.0607,-5.0672,-5.0664,-5.0732,-5.0658,-5.066,-5.0661,0,-4.9562,-4.9647,-4.9777,-4.9885,-4.9921,-4.9986,-5.0084,-5.0157,-5.0249,-5.0286,-5.0355,-5.0396,-5.0487,-5.0475,-5.0601,-5.0562,-5.0611,-5.0651,-5.0655,-5.0667,-5.0651,-5.0686,-5.0755,-5.0765,-5.0679,-5.0677,-5.0676,0,-4.9569,-4.9716,-4.9814,-4.9859,-4.9987,-5.0032,-5.0087,-5.0178,-5.0235,-5.0321,-5.0359,-5.0455,-5.0507,-5.0581,-5.0647,-5.0632,-5.0767,-5.076,-5.0801,-5.0799,-5.0826,-5.0824,-5.0904,-5.0858,-5.0858,-5.0858,-5.0858,0,-4.9636,-4.9714,-4.9819,-4.9878,-4.9968,-5.0038,-5.0125,-5.0184,-5.0264,-5.0336,-5.0386,-5.0453,-5.0537,-5.0615,-5.0668,-5.0764,-5.0787,-5.082,-5.0833,-5.0816,-5.0811,-5.0848,-5.0845,-5.0861,-5.086,-5.086,-5.0859,0,-4.9659,-4.9732,-4.9842,-4.9954,-4.9984,-5.0045,-5.0141,-5.0202,-5.026,-5.0351,-5.0377,-5.0469,-5.0564,-5.0637,-5.0761,-5.0796,-5.0898,-5.0912,-5.0867,-5.0873,-5.091,-5.0905,-5.1016,-5.1035,-5.0976,-5.0976,-5.0977,0,-4.9697,-4.9758,-4.9877,-4.9929,-4.9984,-5.0067,-5.0126,-5.0199,-5.0258,-5.0368,-5.0415,-5.0513,-5.0595,-5.0744,-5.0822,-5.0917,-5.0934,-5.0966,-5.0948,-5.0929,-5.0934,-5.093,-5.0936,-5.0968,-5.0968,-5.0968,-5.0969,0,-4.9757,-4.9791,-4.9873,-4.9969,-5.0038,-5.0117,-5.0197,-5.0237,-5.0323,-5.0388,-5.0485,-5.0549,-5.0675,-5.0771,-5.0874,-5.0932,-5.0965,-5.0974,-5.0988,-5.0971,-5.0942,-5.0958,-5.0872,-5.0971,-5.0971,-5.097,-5.097,-5.097,-4.979,-4.9846,-4.9939,-5.0029,-5.0097,-5.0171,-5.0233,-5.0299,-5.0382,-5.0489,-5.0527,-5.0627,-5.0719,-5.086,-5.0919,-5.0999,-5.1001,-5.1021,-5.1027,-5.1031,-5.1029,-5.0929,-5.1018,-5.1018,-5.1018,-5.1018,-5.1018,0,-4.9852,-4.9914,-4.9997,-5.0107,-5.0179,-5.0203,-5.0293,-5.0351,-5.0439,-5.0521,-5.0601,-5.0713,-5.0807,-5.0893,-5.0992,-5.1039,-5.1057,-5.1062,-5.1059,-5.1072,-5.1021,-5.0999,-5.1046,-5.1046,-5.1046,-5.1046,-5.1046,-5.1046,-4.9893,-4.999,-5.0035,-5.0166,-5.0228,-5.0326,-5.0376,-5.0444,-5.051,-5.0633,-5.0711,-5.0766,-5.0851,-5.0956,-5.1044,-5.1067,-5.1101,-5.1102,-5.1129,-5.108,-5.1076,-5.1072,-5.1052,-5.1109,-5.1109,-5.1174,-5.1174,-5.1175]},{"header":{"parameterUnit":"m.s-1","parameterCategory":1,"la1":30.2991,"la2":30.254,"lo1":-89.0895,"lo2":-89.0444,"dy":0.0017,"dx":0.0017,"nx":28,"ny":28,"refTime":"2023-11-20T09:00:00:Z","depth":0,"parameterNumber":3,"parameterNumberName":"V-component_of_WINDS"},"data":[0,0,0,0,0,0,0,0,0,0,0,0,0,0,0,0,0,0,0,0,0,0,0,0,0,0,0,0,0,0,0,0,0,0,0,0,0,0,0,0,0,0,0,0,0,0,0,0,0,0,0,0,0,0,0,0,0,0,5.7429,5.743,0,5.7574,5.7576,5.7577,5.7629,5.7629,5.7628,5.7628,5.7773,5.7777,5.7781,0,0,0,0,0,0,0,0,0,0,0,0,0,5.7194,5.7198,5.7428,5.743,5.7432,5.7574,5.7576,5.7578,5.7629,5.7629,5.7628,5.7628,5.7771,5.7777,5.7782,0,0,0,0,0,0,0,0,0,0,0,0,0,5.7313,5.7199,5.7428,5.7475,5.7481,5.7573,5.7576,5.7578,5.7629,5.7629,5.7628,5.7627,5.777,5.7776,5.7783,5.7838,0,0,5.7802,5.7805,0,0,0,0,0,0,0,0,5.7306,5.7322,5.7466,5.7472,5.7478,5.7583,5.7547,5.7665,5.763,5.7573,5.7628,5.7627,5.771,5.7721,5.775,5.7845,5.7851,5.7803,5.7807,5.781,5.7812,0,0,0,0,0,0,0,5.7298,5.7316,5.7486,5.7468,5.7476,5.7488,5.7505,5.7569,5.7644,5.7578,5.7582,5.7599,5.7713,5.7744,5.7754,5.7853,5.7803,5.7809,5.7813,5.7815,5.8005,5.8006,0,0,0,0,0,0,5.7282,5.7309,5.7481,5.749,5.7389,5.7493,5.7511,5.755,5.7643,5.7657,5.7599,5.76,5.7733,5.7746,5.7759,5.7834,5.781,5.7816,5.782,5.8004,5.8005,5.8007,0,0,0,0,0,0,5.7277,5.7297,5.7475,5.7401,5.7424,5.7498,5.7541,5.7553,5.7584,5.766,5.7673,5.7617,5.7733,5.775,5.7819,5.7839,5.7819,5.7825,5.8003,5.8004,5.8006,5.7981,0,0,0,0,0,0,5.727,5.7295,5.7317,5.7401,5.7428,5.7533,5.7542,5.7557,5.7596,5.7599,5.768,5.7692,5.7734,5.7809,5.7826,5.7848,5.783,5.8001,5.8003,5.8005,5.798,5.7981,5.7982,0,0,0,0,0,5.7262,5.7302,5.7318,5.7338,5.7457,5.7534,5.755,5.7598,5.7597,5.762,5.7669,5.769,5.7834,5.7816,5.7835,5.7859,5.8,5.8003,5.8005,5.7979,5.7981,5.7982,0,0,0,0,0,0,5.7216,5.7314,5.7332,5.7401,5.7459,5.7543,5.7573,5.7597,5.7655,5.7656,5.7712,5.773,5.7795,5.7834,5.7812,5.792,5.7919,5.7925,5.7892,5.7894,5.7896,5.7885,5.7835,0,0,0,0,0,5.7215,5.727,5.7352,5.7405,5.7433,5.7498,5.7533,5.7566,5.7627,5.7652,5.7706,5.7764,5.7824,5.7861,5.7919,5.7986,5.8006,5.8012,5.8013,5.8014,5.8019,5.8061,5.8066,5.8015,5.8015,5.8015,0,0,5.7211,5.7271,5.7302,5.7397,5.7446,5.7502,5.7518,5.7576,5.7618,5.766,5.773,5.7772,5.7841,5.791,5.7943,5.7945,5.8037,5.8017,5.8017,5.8022,5.8064,5.8069,5.8073,5.8017,5.8016,5.8016,0,0,5.7234,5.7284,5.7336,5.7385,5.746,5.7504,5.7516,5.7597,5.7627,5.7698,5.7732,5.7783,5.7883,5.7932,5.797,5.8016,5.8038,5.8033,5.8039,5.8079,5.8083,5.8087,5.8106,5.8112,5.8037,5.8037,5.8037,0,5.7219,5.7306,5.7358,5.7416,5.7458,5.7501,5.7554,5.7599,5.7688,5.7716,5.7717,5.7846,5.7895,5.7978,5.799,5.8018,5.8035,5.8024,5.8078,5.8083,5.8087,5.8106,5.8113,5.8036,5.8037,5.8037,5.8037,0,5.7286,5.7346,5.7379,5.7467,5.7512,5.7567,5.7628,5.7668,5.7697,5.774,5.7814,5.7876,5.7949,5.7971,5.7998,5.8059,5.8058,5.8067,5.8067,5.809,5.8109,5.8116,5.8035,5.8035,5.8036,5.8036,0,0,5.7283,5.7402,5.7413,5.7456,5.7543,5.759,5.7648,5.7722,5.7756,5.7816,5.7867,5.7953,5.7964,5.8007,5.8041,5.8076,5.8112,5.8082,5.8084,5.8087,5.8186,5.818,5.8187,5.8127,5.8129,5.813,5.8182,0,5.7318,5.7425,5.7475,5.756,5.7617,5.7661,5.7711,5.7771,5.7814,5.7869,5.7916,5.7977,5.7985,5.8012,5.8049,5.81,5.8133,5.8096,5.8176,5.8179,5.816,5.8197,5.8189,5.8235,5.8189,5.819,5.8191,0,5.7374,5.7438,5.7528,5.7613,5.7639,5.7684,5.7758,5.7809,5.7878,5.7907,5.7958,5.7991,5.8055,5.805,5.814,5.8114,5.815,5.818,5.8183,5.8194,5.8187,5.821,5.825,5.8257,5.8202,5.8202,5.8201,0,5.7365,5.7473,5.7543,5.7577,5.7677,5.7708,5.7751,5.7819,5.7862,5.7926,5.7955,5.8024,5.8063,5.8116,5.8169,5.816,5.8254,5.8253,5.8281,5.828,5.83,5.8298,5.8348,5.832,5.8319,5.8319,5.8319,0,5.74,5.7455,5.7541,5.7584,5.7647,5.7705,5.7766,5.7811,5.7873,5.7926,5.7967,5.8016,5.8081,5.8139,5.818,5.825,5.8266,5.8292,5.8303,5.829,5.8287,5.8315,5.8313,5.8321,5.8321,5.832,5.832,0,5.7401,5.7461,5.754,5.7629,5.7653,5.7696,5.7772,5.7816,5.7863,5.793,5.7949,5.8021,5.8091,5.8149,5.824,5.8268,5.8342,5.8353,5.8319,5.8325,5.8351,5.8349,5.8422,5.8436,5.8396,5.8396,5.8397,0,5.742,5.7464,5.7559,5.7599,5.7642,5.7704,5.7749,5.7808,5.7853,5.7938,5.7972,5.8046,5.8108,5.8218,5.8279,5.835,5.8364,5.8385,5.8375,5.8362,5.8368,5.8366,5.8372,5.8386,5.8386,5.8387,5.8387,0,5.7449,5.7478,5.7541,5.7616,5.7669,5.773,5.7792,5.7822,5.7894,5.7942,5.8016,5.8064,5.816,5.8234,5.8312,5.8356,5.8384,5.839,5.8401,5.8388,5.8368,5.8383,5.8324,5.8388,5.8388,5.8388,5.8387,5.8387,5.7461,5.7503,5.7578,5.7649,5.7703,5.7761,5.7808,5.7862,5.7925,5.8009,5.804,5.8116,5.8188,5.8297,5.8342,5.8403,5.8406,5.842,5.8425,5.8428,5.8428,5.8358,5.8417,5.8417,5.8417,5.8417,5.8417,0,5.7494,5.7545,5.761,5.7698,5.7754,5.7777,5.7849,5.7894,5.7961,5.8026,5.8088,5.8175,5.8247,5.8315,5.8392,5.8428,5.8443,5.8446,5.8445,5.8455,5.8419,5.8404,5.8433,5.8433,5.8433,5.8433,5.8433,5.8433,5.7518,5.7592,5.763,5.7732,5.7783,5.786,5.7899,5.7954,5.8007,5.8103,5.8164,5.8209,5.8276,5.8359,5.8427,5.8446,5.8473,5.8473,5.8495,5.846,5.8457,5.8455,5.8441,5.8478,5.8478,5.8527,5.8527,5.8527]}]]